ARIANE 5 R/B, 41946

Orbit data source: Space-Track

ARIANE 5 R/B, 41946 is space debris in HEO originally from a launch on Tue, 14 Feb 2017 UTC launched from the French Guiana (FRGUI). Debris objects in space refer to the collection of defunct objects orbiting the Earth. Examples of debris include non-operational satellites, rocket bodies, and fragments generated from explosions, collisions, or faulty payload assembly.

Loading next visibility...
Identifier
41946, 2017-007C
Orbit
HEO
Country
Flag of FRFR
Related business
Manufacturer
Airbus Safran
Mission
Spacecraft
Bus & Motor
ESC-A, Unknown motor
Mass
~5,000 kg wet, ~5,000 kg dry
Launch date (UTC)
2017-02-14 (9 years ago)
Launch vehicle
Unknown
Launch site
French Guiana (FRGUI)
Object type
Payload
Rocket body
Debris
Shape & HBR
Cyl + 1 Nozzle, 3.5 m
Radar Cross Section
41.627 m², Large (>1 m²)

Expand to show TLE details & history
Last TLE update: 14 hours ago

TLE from 14 hours ago
0 ARIANE 5 R/B
1 41946U 17007C   25293.05242953  .00003355  00000-0  16404-2 0  9993
2 41946   4.0631  27.8362 7175136 332.3240   3.4335  2.39972990 73621
Epoch: 2025-10-20T01:15Z
TLE epoch observation values (Epoch: 2025-10-20T01:15:29.911Z)
Latitude
-0.00014°
Longitude
-19.68471°
Altitude
594.546 km
Speed
9.869 km/s
True Right ascension
01h 51m 48s
True Declination
0° 00' 00"
Sunlit
Object was in full shadow at epoch
Visualization orbit readout
Latitude
Unknown
Longitude
Unknown
Altitude
Unknown
Speed
Unknown
Apparent Right ascension
Unknown
Apparent Declination
Unknown
Sunlit
N/A
Visualization observer readout
Local Sidereal Time
10:20:49
Azimuth
Unknown
Elevation
Unknown
Doppler factor
Unknown
Orbital elements
Apogee altitude
34,106.961 km
Perigee altitude
280.611 km
Semi-major axis
23,571.923 km
Eccentricity
0.71751
Inclination
4.0631°
RAAN
27.8362°
Arg. of periapsis
332.324°
True anomaly
28.90839°
Mean anomaly
3.4335°
Eccentric anomaly
11.93577°
Mean motion
0.59972 °/min
Orbital period
600.28 mins
BSTAR
0.0016404
Loading maneuver chart data...
Computing Atmospheric mass density...
Loading historical data...
Loading historical data...
Loading historical data...
Loading historical data...
Loading historical data...
Loading historical data...
Loading historical data...
Other satellites on launch #7 in the year 2017 (2017-02-14 UTC)

Documentation

Showing up to 5 results
|